Location: Sternwarte ZA, Rosenfeld-Brittheim
(48.2889°N, 8.6789°E)
Time: 18:14:38
(UTC+01:00)

ISS - Pass Details

Date: 21 May 2017
Orbit: 403 x 406 km, 51.6° (Epoch: 15 December)

Event Time Altitude Azimuth Distance (km) Brightness Sun altitude
Exits shadow 01:28:58 61° 34° (NE) 479 -3.4 -21.5°
Drops below altitude 10° 01:31:54 10° 67° (ENE) 1,494 -0.7 -21.5°
Sets 01:34:00 0° 69° (ENE) 2,355 0.4 -21.5°
